Regional Weather Roundup
Issued by NWS

Home | Current Version | Previous Version | Text Only | Print | Product List | Glossary Off
Versions: 1 2 3 4 5 6 7 8 9 10 11 12 13 14 15 16 17 18 19 20 21 22 23 24 25 26 27 28 29 30 31 32 33 34 35 36 37 38 39 40 41 42 43 44 45 46 47 48 49 50

881
ASUS45 KSLC 270710
RWRUT

UTAH REGIONAL WEATHER ROUNDUP
NATIONAL WEATHER SERVICE SALT LAKE CITY UT
100 AM MDT THU APR 27 2017

UTZ001>011-023>025-270800-

NORTHERN UTAH

CITY           SKY/WX    TMP DP  RH WIND       PRES   REMARKS
BRIGHAM CITY   CLOUDY    46  41  81 S16G22    29.69F
HILL AFB       HVY RAIN  43  39  87 SW14G24   29.72S FOG
LOGAN          HVY RAIN  44  41  89 NW17G23   29.71R FOG
OGDEN          LGT RAIN  44  41  89 W9        29.72S
SALT LAKE CITY LGT RAIN  46  43  89 W6        29.73R
TOOELE VALLEY  RAIN      43  41  93 NW16      29.78R
WENDOVER       PTCLDY    48  34  58 NW12      29.77R
HEBER CITY     CLOUDY    39  36  87 CALM      29.71S
WEST JORDAN    CLOUDY    46  46 100 W8        29.75R

$$

UTZ011>015-024>027-270800-

CENTRAL/NORTHEAST UTAH

CITY           SKY/WX    TMP DP  RH WIND       PRES   REMARKS
PROVO AIRPORT  LGT RAIN  45  43  93 S7        29.74S
MOAB/CANYONLAN MOCLDY    51  32  48 SW6       29.66S
DELTA          CLOUDY    45  43  93 N8        29.80R
PRICE          MOCLDY    39  39 100 N6        29.72F WCI  35
RICHFIELD      MOCLDY    45  45 100 CALM      29.79F
ROOSEVELT      CLOUDY    43  37  81 SW6       29.71F
VERNAL         CLOUDY    44  39  82 CALM      29.69F

$$

UTZ013>016-019>022-027-270800-

SOUTHERN UTAH

CITY           SKY/WX    TMP DP  RH WIND       PRES   REMARKS
BRYCE CANYON   LGT RAIN  39  35  86 NW9       29.84S WCI  33
CEDAR CITY     CLOUDY    44  37  76 SW5       29.78F
MILFORD        MOCLDY    44  41  89 VRB5      29.77F
ST GEORGE      CLOUDY    64  32  30 CALM      29.66S
HANKSVILLE     MOCLDY    50  43  76 CALM      29.73S
KANAB          CLEAR     55  32  41 SW8       29.76F
BLANDING       CLOUDY    46  40  80 W13       29.84R

$$

REGIONAL REPORTS     COLORADO/ARIZONA

CITY           SKY/WX    TMP DP  RH WIND       PRES   REMARKS
CRAIG, CO      LGT RAIN  39  35  86 W12       29.71S WCI  32
GRAND JUNCTION CLOUDY    47  40  76 E3        29.71F
RIFLE, CO      LGT RAIN  44  37  76 W9        29.73R
MONTROSE, CO   CLOUDY    45  34  65 CALM      29.74F
CORTEZ, CO     CLOUDY    44  39  82 E6        29.77F
COLORADO CITY    N/A     61  34  36 W14       29.76F
PAGE, AZ       CLOUDY    65  29  25 W9        29.68F
GRAND CANYON   MOCLDY    47  26  44 SW12      29.86F
KINGMAN, AZ    PTCLDY    69  33  26 SW21G30   29.75R
FLAGSTAFF, AZ  PTCLDY    49  23  36 SW14G22   29.86F

$$

REGIONAL REPORTS    NEVADA/IDAHO/WYOMING

CITY           SKY/WX    TMP DP  RH WIND       PRES   REMARKS
LAS VEGAS, NV  MOCLDY    75  41  29 SW10      29.65R
ELY, NY        LGT RAIN  40  38  93 N13       29.86S WCI  32
ELKO, NV       MOCLDY    40  35  83 SW6       29.86R
POCATELLO, ID  CLOUDY    41  38  89 SW22G35   29.67F
BURLEY, ID     PTCLDY    40  35  83 W18G33    29.71S WCI  31
FORT BRIDGER,  PTSUNNY   36  36  99 W20G26    29.71F WCI  25
EVANSTON, WY   CLOUDY    34  34 100 SW8       29.71S WCI  27
ROCK SPRINGS,  CLOUDY    37  33  85 SW8       29.66F WCI  31
KEMMERER, WY     N/A     34  32  93 W14       29.67F WCI  24

$$




USA.gov is the U.S. government's official web portal to all federal, state and local government web resources and services.